User: anonymous   Login
Location: Unspecified
(0.0000°N, 0.0000°E)
Time: 19:02:39
(UTC+00:00)
Language:

GOES 3 - Orbit

View from above orbital plane
View from above orbital plane
View from above satellite
View from above satellite

Ground track
Ground track

The orbit data is extracted from the following two-line orbital elements,

1 10953U 78062A   17084.50387168 +.00000055 +00000-0 +00000-0 0  9999
2 10953 013.5268 332.0656 0003301 307.7593 154.1663 00.99356768095105
Epoch (UTC): 25 March 2017 12:05:34
Eccentricity: 0.0003301
inclination: 13.5268°
perigee height: 36030 km
apogee height: 36059 km
right ascension of ascending node: 332.0656°
argument of perigee: 307.7593°
revolutions per day: 0.99356768
mean anomaly at epoch: 154.1663°
orbit number at epoch: 9510

The dashed part of the orbit path shows where the satellite is in the earth's shadow,  

DLR